User: anonymous   Login
Location: Unspecified
(0.0000°N, 0.0000°E)
Time: 18:58:08
(UTC+00:00)
Language:

IGS 7A - Orbit

View from above orbital plane
View from above orbital plane
View from above satellite
View from above satellite

Ground track
Ground track

The orbit data is extracted from the following two-line orbital elements,

1 37954U 11075A   21135.92697483 0.00000000  00000-0  00000-0 0    05
2 37954  97.3932 210.6626 0001000 355.6335   4.3663 15.17674504    09
Epoch (UTC): 15 May 2021 22:14:50
Eccentricity: 0.0001000
inclination: 97.3932°
perigee height: 512 km
apogee height: 513 km
right ascension of ascending node: 210.6626°
argument of perigee: 355.6335°
revolutions per day: 15.17674504
mean anomaly at epoch: 4.3663°
orbit number at epoch: 0

The dashed part of the orbit path shows where the satellite is in the earth's shadow,  

DLR